Regional Weather Roundup
Issued by NWS

Home | Current Version | Previous Version | Graphics & Text | Print | Product List | Glossary On
Versions: 1 2 3 4 5 6 7 8 9 10 11 12 13 14 15 16 17 18 19 20 21 22 23 24 25 26 27 28 29 30 31 32 33 34 35 36 37 38 39 40 41 42 43 44 45 46 47 48 49 50
000
ASUS43 KFSD 152010
RWRSD

WEATHER ROUNDUP FOR SOUTH DAKOTA
NATIONAL WEATHER SERVICE SIOUX FALLS SD
200 PM CST MON JAN 15 2018

NOTE: "FAIR" INDICATES FEW OR NO CLOUDS BELOW 12,000 FEET WITH NO
SIGNIFICANT WEATHER AND/OR OBSTRUCTIONS TO VISIBILITY.


SDZ001>005-009-010-012>017-152100-
NORTHWEST AND NORTH CENTRAL SOUTH DAKOTA

CITY           SKY/WX    TMP DP  RH WIND       PRES   REMARKS
BUFFALO          N/A     -3 -12  65 NW16      30.63F WCI -24
FAITH            N/A     -2 -11  65 NW21      30.69F WCI -25
MOBRIDGE       SUNNY      0 -12  57 N18G28    30.69F WCI -21
$$

SDZ012>016-024>037-041>051-057-063-072>074-152100-
SOUTHWEST AND SOUTH CENTRAL SOUTH DAKOTA

CITY           SKY/WX    TMP DP  RH WIND       PRES   REMARKS
RAPID CTY ARPT SUNNY      3  -6  66 N28G36    30.66F WCI -21
PIERRE         SUNNY      2  -9  60 N20G28    30.72S WCI -19
CUSTER         SUNNY      9 -15  33 VRB7      30.37F WCI  -2
ELLSWORTH AFB  DRIZZLE    3  -6  66 NW29G35   30.63  WCI -21
PHILIP         SUNNY      3  -6  66 NW24G32   30.73F WCI -20
PINE RIDGE     SUNNY      6  -4  63 N14G22    30.63F WCI -11
SPEARFISH        N/A      0  -8  71 NW12      30.63F WCI -18
WINNER         CLOUDY     4  -6  63 NW32G40   30.65F WCI -21
$$

SDZ004>011-016>023-039-040-152100-
NORTHEAST SOUTH DAKOTA

CITY           SKY/WX    TMP DP  RH WIND       PRES   REMARKS
ABERDEEN       CLOUDY    -2 -12  62 N23G31    30.70F WCI -26
WATERTOWN      MOSUNNY   -6 -14  68 N22       30.54S WCI -31
BROOKINGS      PTSUNNY   -6 -14  68 MISG        N/A
SISSETON         N/A     -7 -15  68 NW30G36   30.63F WCI -35
$$

SDZ017-020-022-023-036>040-048>070-152100-
SOUTHEAST SOUTH DAKOTA

CITY           SKY/WX    TMP DP  RH WIND       PRES   REMARKS
SIOUX FALLS    PTSUNNY   -3 -10  72 NW23      30.56S WCI -27
HURON          CLOUDY    -2 -11  65 N23G30    30.67F WCI -26
CHAMBERLAIN    CLOUDY     3  -7  64 NW22G29   30.67S WCI -19
MITCHELL       CLOUDY    -1 -10  65 N26G32    30.67R WCI -26
YANKTON        MOSUNNY   -1  -9  68 NW24G32   30.62S WCI -25
$$

ABBREVIATIONS USED IN REMARKS
   TC - TEMPERATURE IN CELSIUS
  WCI - WIND CHILL INDEX
   HX - HEAT INDEX
  VSB - VISIBILITY




USA.gov is the U.S. government's official web portal to all federal, state and local government web resources and services.